Terug naar catalogus

DISKSAT B

ActiefWetenschapVLEO
NORAD 67220·PAYLOAD·🇺🇸 United States

Gelanceerd Dec 18, 2025 vanaf Wallops Flight Facility

Loading…

Volgende Passages (komende 24 uur)

TLE

VersSource: Space-Track

Epoch: Sep 14, 2026, 11:13 UTC

1 67220U 25305B   26257.46749359  .00001260  00000-0  92872-4 0  9992
2 67220  45.0047 329.9571 0005764 299.1014  60.9285 15.09375731 40806

Volg DISKSAT B in realtime met AllMySat

Download on the App Store